CGAS EGHQ-EGTK

Flight info

Callsign CGAS
Flight time N/A
Altitude 25000
Route EXMOR DCT CONKO
Aircraft PC12/L-SDFGRWY/S

Departure

Time N/A
Airport Cornwall Airport Newquay (EGHQ)

Arrival

Time 2026-04-21 20:55
Airport London Oxford Airport (EGTK)
Time Latitude Longitude Altitude Speed Heading
2026-04-21 20:55 51.84256 -1.31824 269 ft 0 kts 191°
2026-04-21 20:55 51.84226 -1.31833 269 ft 26 kts 191°
2026-04-21 20:55 51.83799 -1.31967 269 ft 96 kts 191°
2026-04-21 20:55 51.83033 -1.32203 525 ft 123 kts 191°
2026-04-21 20:56 51.82227 -1.32411 1279 ft 117 kts 187°
2026-04-21 20:56 51.81295 -1.32604 1523 ft 161 kts 188°
2026-04-21 20:56 51.80085 -1.32676 2005 ft 180 kts 169°
2026-04-21 20:56 51.79070 -1.31686 2650 ft 170 kts 130°
2026-04-21 20:57 51.78658 -1.29914 3086 ft 177 kts 89°
2026-04-21 20:57 51.79114 -1.28090 3465 ft 180 kts 45°
2026-04-21 20:57 51.80183 -1.27273 3417 ft 172 kts
2026-04-21 20:57 51.81362 -1.27537 3156 ft 174 kts 334°
2026-04-21 20:58 51.82318 -1.28683 2746 ft 173 kts 326°
2026-04-21 20:58 51.83473 -1.29285 2126 ft 173 kts 355°
2026-04-21 20:58 51.84654 -1.29044 1936 ft 170 kts 14°
2026-04-21 20:58 51.85751 -1.28421 1854 ft 166 kts 20°
2026-04-21 20:59 51.86762 -1.27788 1741 ft 140 kts 15°
2026-04-21 20:59 51.87646 -1.27922 1482 ft 129 kts 327°
2026-04-21 20:59 51.88114 -1.29106 1418 ft 115 kts 278°
2026-04-21 20:59 51.87929 -1.30365 1286 ft 120 kts 237°
2026-04-21 21:00 51.87330 -1.31197 1283 ft 104 kts 206°
2026-04-21 21:00 51.86623 -1.31355 1031 ft 107 kts 178°
2026-04-21 21:00 51.85895 -1.31373 757 ft 105 kts 185°
2026-04-21 21:00 51.85205 -1.31519 522 ft 98 kts 192°
2026-04-21 21:01 51.84563 -1.31731 354 ft 91 kts 193°
2026-04-21 21:01 51.83958 -1.31911 269 ft 81 kts 190°
2026-04-21 21:01 51.83358 -1.32088 381 ft 100 kts 189°
2026-04-21 21:01 51.82554 -1.32254 736 ft 130 kts 187°
2026-04-21 21:02 51.81679 -1.32309 1456 ft 126 kts 169°
2026-04-21 21:02 51.81051 -1.31280 1743 ft 153 kts 98°
2026-04-21 21:02 51.81200 -1.29540 1886 ft 160 kts 70°
2026-04-21 21:02 51.81781 -1.28024 2122 ft 156 kts 44°
2026-04-21 21:03 51.82634 -1.27105 2173 ft 135 kts 28°
2026-04-21 21:03 51.83473 -1.26331 1802 ft 148 kts 29°
2026-04-21 21:03 51.84399 -1.25760 1628 ft 135 kts
2026-04-21 21:03 51.85238 -1.25696 1557 ft 117 kts 354°
2026-04-21 21:04 51.85990 -1.26016 1479 ft 111 kts 330°
2026-04-21 21:04 51.86590 -1.26767 1497 ft 104 kts 314°
2026-04-21 21:04 51.87058 -1.27637 1499 ft 102 kts 304°
2026-04-21 21:04 51.87362 -1.28717 1393 ft 107 kts 287°
2026-04-21 21:05 51.87395 -1.29921 1284 ft 112 kts 258°
2026-04-21 21:05 51.87077 -1.30962 1420 ft 101 kts 222°
2026-04-21 21:05 51.86396 -1.31326 1081 ft 112 kts 183°
2026-04-21 21:05 51.85655 -1.31405 661 ft 99 kts 189°
2026-04-21 21:06 51.85021 -1.31593 454 ft 89 kts 194°
2026-04-21 21:06 51.84409 -1.31779 314 ft 89 kts 191°
2026-04-21 21:06 51.83849 -1.31946 270 ft 72 kts 191°
2026-04-21 21:06 51.83576 -1.32026 267 ft 1 kts 174°
2026-04-21 21:07 51.83562 -1.32017 267 ft 9 kts 151°
2026-04-21 21:07 51.83504 -1.31955 266 ft 10 kts 146°
2026-04-21 21:07 51.83450 -1.31904 265 ft 8 kts 150°
2026-04-21 21:07 51.83441 -1.31896 265 ft 0 kts 149°
2026-04-21 21:12 51.83438 -1.31893 265 ft 4 kts 149°
2026-04-21 21:12 51.83379 -1.31835 265 ft 8 kts 148°
2026-04-21 21:12 51.83373 -1.31829 264 ft 0 kts 150°
2026-04-21 21:15 51.83371 -1.31827 264 ft 0 kts 149°
2026-04-21 21:19 51.83363 -1.31820 264 ft 4 kts 149°
2026-04-21 21:19 51.83326 -1.31781 264 ft 8 kts 146°
2026-04-21 21:20 51.83310 -1.31737 264 ft 3 kts 63°
2026-04-21 21:20 51.83320 -1.31713 264 ft 1 kts 42°
2026-04-21 21:20 51.83321 -1.31711 264 ft 0 kts 42°